Weather Roundup
Issued by NWS Corpus Christi, TX

Home | Current Version | Previous Version | Text Only | Print | Product List | Glossary On
Versions: 1 2 3 4 5 6 7 8 9 10 11 12 13 14 15 16 17 18 19 20 21 22 23 24 25 26 27 28 29 30 31 32 33 34 35 36 37 38 39 40 41 42 43 44 45 46 47 48 49 50
000
ASUS44 KCRP 301310
HRRCRP

SOUTH TEXAS REGIONAL WEATHER ROUNDUP
NATIONAL WEATHER SERVICE CORPUS CHRISTI TX
800 AM CDT TUE AUG 30 2016


TXZ229>244-301400-
...CORPUS CHRISTI AREA OBSERVATIONS...

CITY           SKY/WX    TMP DP  RH WIND       PRES   REMARKS
CORPUS CHRISTI RAIN      76  76 100 N10       29.90R FOG
NAS CORPUS CHR TSTM      78  74  87 E10       29.89R
ROCKPORT       NOT AVBL
KINGSVILLE NAS LGT RAIN  76  76 100 N8        29.89S FOG
ALICE          LGT RAIN  75  74  96 NE9       29.91S FOG
FALFURRIAS     CLOUDY    77  73  88 N5        29.90S
$$

...VICTORIA AREA OBSERVATIONS...

CITY           SKY/WX    TMP DP  RH WIND       PRES   REMARKS
VICTORIA       LGT RAIN  73  72  96 N8        29.95R
BEEVILLE       CLOUDY    75  75 100 NE7       29.93S
PLEASANTON     RAIN      74  72  93 NE8G16    29.98R
SAN ANTONIO    CLOUDY    75  71  87 N7        30.00R
$$

...LAREDO AREA OBSERVATIONS...

CITY           SKY/WX    TMP DP  RH WIND       PRES   REMARKS
LAREDO         CLOUDY    77  73  87 N8        29.97R
COTULLA        LGT RAIN  77  72  84 NE7       29.97R
DEL RIO        CLOUDY    75  71  87 NE6       30.01S
MCALLEN        CLOUDY    80  74  81 NW10      29.90S
HEBBRONVILLE   CLOUDY    76  72  87 N5        29.95R
$$

...OTHER TEXAS OBSERVATIONS...

CITY           SKY/WX    TMP DP  RH WIND       PRES   REMARKS
BROWNSVILLE    MOSUNNY   78  75  90 NW9       29.88R
HOUSTON        CLOUDY    76  71  85 NE9       29.97R
COL. STATION   MOSUNNY   73  71  93 N8        30.01R
AUSTIN         CLOUDY    75  73  93 N7        30.01R
WACO           SUNNY     73  72  96 N7        30.04R
FORT WORTH     MOSUNNY   78  72  81 N5        30.05R
WICHITA FALLS  MOSUNNY   74  69  85 NE3       30.10R
LUBBOCK        CLOUDY    66  64  93 NE8       30.21R
EL PASO        MOCLDY    70  61  73 NE7       30.18R
$$

...MARINE OBSERVATIONS...

STATION/POSITION TIME  SKY/WX   TEMP    WIND        PRES    VSBY  WAVE   SWELL
                                AIR SEA DIR/SP/G                  HT/PER HT/PER
                 (UTC)          (F)     (DEG/KT/KT) (MB)    (MI)  (FT/S) (FT/S)
PORT ARANSAS     1300            77 85   60/ 10/ 11 1012.5R
BUOY 90 E PORT A 1250            84 85   70/ 16/ 19 1011.8R         6/ 7   2/11
BUOY 45 SE BAFFI 1250            80 86   90/  8/ 10 1011.1          4/ 7   3/ 7
BUOY 200 E PT IS 1250            84 87   70/ 10/ 12 1009.6F         3/ 6   3/ 6
BUOY 15 E GALVES 1250            82 84   40/ 16/ 19 1013.4R         4/ 5
$$




USA.gov is the U.S. government's official web portal to all federal, state and local government web resources and services.